Regional Weather Roundup
Issued by NWS

Home | Current Version | Previous Version | Graphics & Text | Print | Product List | Glossary On
Versions: 1 2 3 4 5 6 7 8 9 10 11 12 13 14 15 16 17 18 19 20 21 22 23 24 25 26 27 28 29 30 31 32 33 34 35 36 37 38 39 40 41 42 43 44 45 46 47 48 49 50
924
ASUS44 KLIX 031310
RWRLA
LOUISIANA WEATHER ROUNDUP
NATIONAL WEATHER SERVICE NEW ORLEANS LA
700 AM CST TUE MAR 03 2015

NOTE: "FAIR" INDICATES FEW OR NO CLOUDS BELOW 12,000 FEET WITH NO
      SIGNIFICANT WEATHER AND/OR OBSTRUCTIONS TO VISIBILITY.
      SKY/WX - SKY CONDITION AND SIGNIFICANT WEATHER.
      TMP - AIR TEMPERATURE.    DP   - DEWPOINT TEMPERATURE.
      RH  - RELATIVE HUMIDITY.  PRES - PRESSURE.
      HX  - HEAT INDEX.         WCI  - WIND CHILL INDEX.

*  THESE STATIONS ARE NOT NWS OR FAA STATIONS AND ARE NOT UNDER
   NWS QUALITY CONTROL.

LAZ040-048-061>063-065-066-069-031400-
SOUTHEAST LOUISIANA

CITY           SKY/WX    TMP DP  RH WIND       PRES   REMARKS
N.O. AUDUBON     N/A     66  66 100 MISG        N/A
N.O. INTL ARPT FOG       66  64  93 SE3       30.13R VSB 1/4
N.O. LAKEFRONT FOG       67  64  90 SE8       30.13S VSB<1/4
SLIDELL        FOG       65  65 100 S5        30.13S VSB 1/4
BATON ROUGE    FOG       60  59  96 CALM      30.11S VSB<1/4
BOOTHVILLE     FOG       63  63 100 SE6       30.15R VSB 1/4
BELLE CHASSE   FOG       66  64  93 SE5       30.13R VSB 1/4
BOGALUSA*      FOG       66  63  91 CALM      30.15R VSB 1/4
GALLIANO*      FOG       56  56  97 MISG      30.13S VSB 1
NEW ROADS*     FOG       52  51  99 CALM      30.11S VSB 1/4
GONZALES*      FOG       66  66 100 CALM      30.11S VSB 1/4
HAMMOND*       NOT AVBL
HOUMA*         FOG       43  43 100 CALM      30.12S VSB 1/4
PORT FOURCHON* MOSUNNY   66  66 100 SE8       30.16R FOG

$$

LAZ041-044-053-054-031400-
SOUTHWEST LOUISIANA

CITY           SKY/WX    TMP DP  RH WIND       PRES   REMARKS
LAKE CHARLES   FOG       54  54 100 E6        30.07S VSB 1/4
LAFAYETTE      FOG       56  55  97 CALM      30.10S VSB 1/4
PATTERSON      CLOUDY    66  64  94 SE5       30.10S
SALT POINT       N/A     65  65 100 SE6       30.08F
NEW IBERIA     FOG       59  57  93 E3        30.10F VSB<1/4
CHENAULT AIRPK FOG       54  54 100 E3        30.08F VSB 1/4

$$

LAZ027-028-031400-
CENTRAL LOUISIANA

CITY           SKY/WX    TMP DP  RH WIND       PRES   REMARKS
FORT POLK      FOG       51  50  98 SE6       30.07S VSB 1/2
ALEXANDRIA INT FOG       47  47 100 E6        30.08S VSB 1/4
ALEXANDRIA     CLOUDY    46  46 100 CALM      30.09F FOG

$$

LAZ001-002-031400-
NORTHWEST LOUISIANA

CITY           SKY/WX    TMP DP  RH WIND       PRES   REMARKS
SHREVEPORT     FOG       44  43  96 CALM      30.07S VSB 1/8
BARKSDALE AFB  FOG       43  43 100 SE2       30.07S VSB 1/2
DTN SHREVEPORT FOG       43  41  93 SE3       30.08R VSB 1/2

$$

LAZ014-016-031400-
NORTHEAST LOUISIANA

CITY           SKY/WX    TMP DP  RH WIND       PRES   REMARKS
MONROE         CLOUDY    42  42 100 CALM      30.10F FOG
TALLULAH       FOG       47  46  97 CALM      30.11F VSB 1/4

$$




USA.gov is the U.S. government's official web portal to all federal, state and local government web resources and services.